DW0156 Weather Reports


time (UTC)temp
C
wind
direction
speed
KPH
gust
KPH
rain 1hr
cm
rain 24hr
cm
rain mn
cm
humidity
%
barometer
mb
20260831024950 20 263 3.2 12.9 0.00 0.00 0.00 50 1028.6
20260831024447 21 263 1.6 8.0 0.00 0.00 0.00 50 1028.6
20260831023939 21 263 1.6 8.0 0.00 0.00 0.00 49 1029.0
20260831023444 21 263 1.6 8.0 0.00 0.00 0.00 51 1029.0
20260831022935 20 263 1.6 8.0 0.00 0.00 0.00 51 1029.0
20260831022416 20 263 1.6 8.0 0.00 0.00 0.00 53 1029.2
20260831021240 19 263 1.6 9.7 0.00 0.00 0.00 57 1029.5
20260831015522 18 263 1.6 6.4 0.00 0.00 0.00 59 1029.6
20260831015016 18 263 3.2 9.7 0.00 0.00 0.00 59 1029.6
20260831014525 18 263 1.6 9.7 0.00 0.00 0.00 59 1029.6
20260831014031 18 263 3.2 9.7 0.00 0.00 0.00 60 1030.0
20260831013536 18 263 3.2 9.7 0.00 0.00 0.00 60 1030.0
20260831013023 18 263 1.6 8.0 0.00 0.00 0.00 60 1030.0
20260831012531 18 263 1.6 8.0 0.00 0.00 0.00 60 1030.1
20260831005521 17 263 1.6 8.0 0.00 0.00 0.00 65 1030.1
20260831004341 17 263 0.0 4.8 0.00 0.00 0.00 64 1030.1
20260831003845 17 263 0.0 4.8 0.00 0.00 0.00 66 1030.1
20260831003328 16 263 0.0 0.0 0.00 0.00 0.00 66 1030.1
20260831002814 16 263 0.0 3.2 0.00 0.00 0.00 67 1030.1
20260831002258 16 263 0.0 3.2 0.00 0.00 0.00 67 1030.1
20260831001743 16 263 0.0 1.6 0.00 0.00 0.00 68 1030.1
20260831001247 15 263 0.0 0.0 0.00 0.00 0.00 69 1030.1
20260831000752 15 263 0.0 4.8 0.00 0.00 0.00 69 1030.1
20260830235648 15 263 1.6 4.8 0.00 0.00 0.00 70 1030.2
20260830235140 15 263 0.0 3.2 0.00 0.00 0.00 70 1030.2
20260830234630 15 263 0.0 3.2 0.00 0.00 0.00 72 1030.2
20260830234126 14 263 0.0 0.0 0.00 0.00 0.00 73 1030.3
20260830233610 14 263 0.0 3.2 0.00 0.00 0.00 73 1030.3
20260830233120 14 263 0.0 3.2 0.00 0.00 0.00 74 1030.3
20260830232613 13 263 0.0 3.2 0.00 0.00 0.00 74 1030.3
20260830232121 13 263 0.0 3.2 0.00 0.00 0.00 75 1030.3
20260830230941 13 263 0.0 1.6 0.00 0.00 0.00 76 1030.3
20260830230422 13 263 0.0 0.0 0.00 0.00 0.00 77 1030.3
20260830225919 13 263 0.0 0.0 0.00 0.00 0.00 78 1030.3
20260830225420 13 263 0.0 1.6 0.00 0.00 0.00 80 1030.3
20260830224912 12 263 0.0 0.0 0.00 0.00 0.00 81 1030.3
20260830224357 12 263 0.0 0.0 0.00 0.00 0.00 82 1030.3
20260830223840 11 263 0.0 0.0 0.00 0.00 0.00 84 1030.3
20260830223339 11 263 0.0 0.0 0.00 0.00 0.00 85 1030.3
20260830222848 10 263 0.0 3.2 0.00 0.00 0.00 86 1030.4
20260830221715 9 263 0.0 0.0 0.00 0.00 0.00 87 1030.4
20260830221215 8 263 0.0 0.0 0.00 0.00 0.00 87 1030.3
20260830220057 8 263 0.0 0.0 0.00 0.00 0.00 87 1030.3
20260830215555 8 263 0.0 0.0 0.00 0.00 0.00 87 1030.2
20260830215055 7 263 0.0 1.6 0.00 0.00 0.00 87 1030.2
20260830214545 7 263 0.0 3.2 0.00 0.00 0.00 87 1030.2
20260830214028 7 263 0.0 0.0 0.00 0.00 0.00 87 1030.2
20260830213509 7 263 1.6 3.2 0.00 0.00 0.00 87 1030.2
20260830212956 7 263 0.0 3.2 0.00 0.00 0.00 87 1030.2
20260830212449 6 263 0.0 0.0 0.00 0.00 0.00 87 1030.2
20260830211954 6 263 0.0 1.6 0.00 0.00 0.00 86 1030.2
20260830211457 6 263 0.0 0.0 0.00 0.00 0.00 86 1030.2
20260830210338 6 263 0.0 0.0 0.00 0.00 0.00 86 1030.2
20260830205820 6 263 0.0 0.0 0.00 0.00 0.00 86 1030.2
20260830205315 6 263 0.0 0.0 0.00 0.00 0.00 85 1030.2
20260830204803 6 263 0.0 0.0 0.00 0.00 0.00 85 1030.2
20260830204252 6 263 0.0 0.0 0.00 0.00 0.00 85 1030.1
20260830203758 6 263 0.0 0.0 0.00 0.00 0.00 85 1030.1
20260830203259 7 263 0.0 0.0 0.00 0.00 0.00 85 1030.1
20260830202807 7 263 0.0 0.0 0.00 0.00 0.00 85 1029.9
20260830202306 7 263 0.0 0.0 0.00 0.00 0.00 85 1029.9
20260830201805 7 263 0.0 0.0 0.00 0.00 0.00 85 1029.9
20260830200656 7 263 0.0 0.0 0.00 0.00 0.00 84 1029.7
20260830200152 7 263 0.0 1.6 0.00 0.00 0.00 85 1029.7
20260830195657 7 263 0.0 0.0 0.00 0.00 0.00 85 1029.7
20260830195142 7 263 0.0 0.0 0.00 0.00 0.00 85 1029.7
20260830194638 7 263 0.0 0.0 0.00 0.00 0.00 85 1029.7
20260830193509 7 263 0.0 0.0 0.00 0.00 0.00 85 1029.7
20260830192324 7 263 0.0 0.0 0.00 0.00 0.00 85 1029.6
20260830191827 7 263 0.0 0.0 0.00 0.00 0.00 85 1029.6
20260830191326 7 263 0.0 0.0 0.00 0.00 0.00 85 1029.6
20260830190809 7 263 0.0 0.0 0.00 0.00 0.00 85 1029.6
20260830190249 7 263 0.0 0.0 0.00 0.00 0.00 85 1029.6
20260830185734 7 263 0.0 0.0 0.00 0.00 0.00 85 1029.8
20260830184610 7 263 0.0 0.0 0.00 0.00 0.00 85 1029.8
20260830184101 7 263 0.0 0.0 0.00 0.00 0.00 85 1029.9
20260830182934 7 263 0.0 0.0 0.00 0.00 0.00 85 1029.9
20260830182414 7 263 0.0 0.0 0.00 0.00 0.00 85 1030.1
20260830181303 7 263 0.0 0.0 0.00 0.00 0.00 85 1030.1
20260830180755 7 263 0.0 0.0 0.00 0.00 0.00 85 1030.1
20260830174312 7 263 0.0 3.2 0.00 0.00 0.00 86 1030.4
20260830171906 7 263 1.6 3.2 0.00 0.00 0.00 86 1030.6
20260830171349 7 263 1.6 3.2 0.00 0.00 0.00 86 1030.7
20260830170835 7 263 0.0 1.6 0.00 0.00 0.00 86 1030.7
20260830170317 7 263 0.0 0.0 0.00 0.00 0.00 86 1030.7
20260830165757 7 263 1.6 3.2 0.00 0.00 0.00 86 1030.8
20260830165300 7 263 0.0 3.2 0.00 0.00 0.00 86 1030.8
20260830164154 7 263 0.0 3.2 0.00 0.00 0.00 86 1031.1
20260830163657 7 263 0.0 3.2 0.00 0.00 0.00 86 1031.1
20260830162547 7 263 0.0 0.0 0.00 0.00 0.00 85 1031.2
20260830162034 7 263 0.0 3.2 0.00 0.00 0.00 85 1031.2
20260830160900 7 263 0.0 0.0 0.00 0.00 0.00 85 1031.3
20260830155728 7 263 0.0 0.0 0.00 0.00 0.00 85 1031.5
20260830155217 7 263 0.0 0.0 0.00 0.00 0.00 85 1031.5
20260830154719 7 263 0.0 0.0 0.00 0.00 0.00 85 1031.5
20260830154202 7 263 0.0 0.0 0.00 0.00 0.00 84 1031.6
20260830153653 8 263 0.0 0.0 0.00 0.00 0.00 84 1031.6
20260830153157 8 263 0.0 0.0 0.00 0.00 0.00 84 1031.6
20260830152639 8 263 0.0 0.0 0.00 0.00 0.00 84 1031.7
20260830151521 8 263 0.0 0.0 0.00 0.00 0.00 84 1031.7
20260830150356 8 263 0.0 0.0 0.00 0.00 0.00 84 1031.6
20260830145839 8 263 0.0 0.0 0.00 0.00 0.00 84 1031.6
20260830145342 8 263 0.0 0.0 0.00 0.00 0.00 84 1031.6
20260830144218 8 263 0.0 0.0 0.00 0.00 0.00 84 1031.7
20260830143717 8 263 0.0 0.0 0.00 0.00 0.00 84 1031.7
20260830143219 8 263 0.0 0.0 0.00 0.00 0.00 84 1031.7
20260830142708 8 263 0.0 0.0 0.00 0.00 0.00 84 1031.7
20260830142201 8 263 0.0 0.0 0.00 0.00 0.00 84 1031.7
20260830141709 8 263 0.0 0.0 0.00 0.00 0.00 84 1031.7
20260830141210 8 263 0.0 0.0 0.00 0.00 0.00 84 1031.9
20260830140658 8 263 0.0 0.0 0.00 0.00 0.00 83 1031.9
20260830135525 9 263 0.0 0.0 0.00 0.00 0.00 84 1032.2
20260830135024 9 263 0.0 0.0 0.00 0.00 0.00 84 1032.2
20260830134512 9 263 0.0 1.6 0.00 0.00 0.00 83 1032.2
20260830134016 9 263 0.0 0.0 0.00 0.00 0.00 83 1032.2
20260830133522 9 263 0.0 0.0 0.00 0.00 0.00 83 1032.2
20260830132416 10 263 0.0 0.0 0.00 0.00 0.00 83 1032.2
20260830131904 10 263 0.0 0.0 0.00 0.00 0.00 83 1032.2
20260830131400 10 263 0.0 0.0 0.00 0.00 0.00 82 1032.3
20260830130855 10 263 0.0 0.0 0.00 0.00 0.00 82 1032.3
20260830130339 10 263 0.0 0.0 0.00 0.00 0.00 82 1032.3
20260830125831 10 263 0.0 0.0 0.00 0.00 0.00 81 1032.2
20260830124023 11 263 0.0 0.0 0.00 0.00 0.00 81 1032.1
20260830123510 11 263 0.0 0.0 0.00 0.00 0.00 80 1032.1
20260830122950 11 263 0.0 0.0 0.00 0.00 0.00 79 1032.1
20260830122446 11 263 0.0 0.0 0.00 0.00 0.00 79 1032.2
20260830121946 11 263 0.0 0.0 0.00 0.00 0.00 78 1032.2
20260830121453 11 263 0.0 0.0 0.00 0.00 0.00 78 1032.2
20260830120948 12 263 0.0 0.0 0.00 0.00 0.00 78 1032.0
20260830115816 12 263 0.0 0.0 0.00 0.00 0.00 78 1032.0
20260830115318 12 263 0.0 0.0 0.00 0.00 0.00 76 1032.0
20260830114801 12 263 0.0 0.0 0.00 0.00 0.00 75 1032.0
20260830114303 13 263 0.0 0.0 0.00 0.00 0.00 75 1031.7
20260830113148 13 263 0.0 0.0 0.00 0.00 0.00 74 1031.7
20260830112629 13 263 0.0 0.0 0.00 0.00 0.00 74 1031.6
20260830112137 13 263 0.0 0.0 0.00 0.00 0.00 74 1031.6
20260830111032 13 263 3.2 9.7 0.00 0.00 0.00 74 1031.6
20260830110518 13 263 3.2 9.7 0.00 0.00 0.00 74 1031.6
20260830110004 13 263 3.2 9.7 0.00 0.00 0.00 75 1031.6
20260830105454 13 263 1.6 6.4 0.00 0.00 0.00 75 1031.5
20260830104346 13 263 0.0 4.8 0.00 0.00 0.00 74 1031.5
20260830103837 13 263 0.0 1.6 0.00 0.00 0.00 73 1031.5
20260830103327 13 263 0.0 0.0 0.00 0.00 0.00 72 1031.5
20260830102828 13 263 0.0 0.0 0.00 0.00 0.00 72 1031.3
20260830102331 14 263 0.0 0.0 0.00 0.00 0.00 71 1031.3
20260830101838 14 263 0.0 0.0 0.00 0.00 0.00 71 1031.3
20260830101346 14 263 0.0 0.0 0.00 0.00 0.00 71 1031.2
20260830100839 14 263 0.0 0.0 0.00 0.00 0.00 71 1031.2
20260830100349 15 263 0.0 0.0 0.00 0.00 0.00 71 1031.2
20260830093949 15 263 1.6 8.0 0.00 0.00 0.00 71 1030.9
20260830093449 15 263 3.2 8.0 0.00 0.00 0.00 71 1030.9
20260830092943 15 263 1.6 8.0 0.00 0.00 0.00 72 1030.9
20260830091814 14 263 0.0 4.8 0.00 0.00 0.00 71 1031.0
20260830091307 14 263 0.0 3.2 0.00 0.00 0.00 71 1031.0
20260830090752 14 263 0.0 3.2 0.00 0.00 0.00 70 1031.0
20260830090246 15 263 0.0 3.2 0.00 0.00 0.00 69 1031.0
20260830085105 15 263 0.0 0.0 0.00 0.00 0.00 66 1031.1
20260830084605 15 263 0.0 0.0 0.00 0.00 0.00 66 1031.1
20260830084055 15 263 0.0 0.0 0.00 0.00 0.00 66 1031.1
20260830083541 15 263 0.0 0.0 0.00 0.00 0.00 65 1031.1
20260830083036 16 263 0.0 0.0 0.00 0.00 0.00 65 1031.1
20260830082528 16 263 0.0 0.0 0.00 0.00 0.00 64 1031.1
20260830082025 16 263 0.0 0.0 0.00 0.00 0.00 64 1031.1
20260830081508 16 263 0.0 3.2 0.00 0.00 0.00 63 1031.1
20260830081015 16 263 0.0 1.6 0.00 0.00 0.00 63 1030.9
20260830080505 16 263 1.6 6.4 0.00 0.00 0.00 62 1030.9
20260830080008 16 263 3.2 6.4 0.00 0.00 0.00 62 1030.9
20260830075507 17 263 3.2 6.4 0.00 0.00 0.00 61 1031.0
20260830075011 17 263 3.2 6.4 0.00 0.00 0.00 61 1031.0
20260830074502 17 263 3.2 6.4 0.00 0.00 0.00 61 1031.0
20260830074008 17 263 3.2 8.0 0.00 0.00 0.00 62 1030.9
20260830073503 17 263 3.2 8.0 0.00 0.00 0.00 61 1030.9
20260830073006 17 263 4.8 9.7 0.00 0.00 0.00 61 1030.9
20260830072504 17 263 3.2 9.7 0.00 0.00 0.00 60 1031.1
20260830071957 17 263 3.2 9.7 0.00 0.00 0.00 60 1031.1
20260830071447 17 263 4.8 9.7 0.00 0.00 0.00 59 1031.1
20260830070321 17 263 3.2 14.5 0.00 0.00 0.00 61 1031.2
20260830065811 17 263 4.8 14.5 0.00 0.00 0.00 60 1031.2
20260830065259 17 263 4.8 14.5 0.00 0.00 0.00 59 1031.2
20260830064807 17 263 4.8 14.5 0.00 0.00 0.00 59 1031.2
20260830064307 17 263 4.8 9.7 0.00 0.00 0.00 59 1031.2
20260830063749 18 263 3.2 14.5 0.00 0.00 0.00 59 1031.2
20260830063242 18 263 4.8 14.5 0.00 0.00 0.00 59 1031.2
20260830062733 18 263 4.8 14.5 0.00 0.00 0.00 58 1031.4
20260830062236 18 263 4.8 14.5 0.00 0.00 0.00 57 1031.4
20260830061734 18 263 4.8 11.3 0.00 0.00 0.00 56 1031.4
20260830061223 18 263 4.8 11.3 0.00 0.00 0.00 55 1031.7
20260830060705 18 263 4.8 11.3 0.00 0.00 0.00 54 1031.7
20260830060201 18 263 4.8 11.3 0.00 0.00 0.00 54 1031.7
20260830055654 18 263 4.8 11.3 0.00 0.00 0.00 53 1031.7
20260830055156 18 263 3.2 9.7 0.00 0.00 0.00 52 1031.7
20260830054642 18 263 3.2 16.1 0.00 0.00 0.00 53 1031.7
20260830054133 18 263 4.8 16.1 0.00 0.00 0.00 53 1031.8
20260830053633 18 263 4.8 16.1 0.00 0.00 0.00 53 1031.8
20260830051852 17 263 4.8 12.9 0.00 0.00 0.00 55 1032.0
20260830051355 17 263 3.2 14.5 0.00 0.00 0.00 57 1032.2
20260830050904 17 263 3.2 14.5 0.00 0.00 0.00 58 1032.2
20260830050405 17 263 6.4 17.7 0.00 0.00 0.00 58 1032.2
20260830045846 17 263 4.8 17.7 0.00 0.00 0.00 59 1032.3
20260830044713 17 263 4.8 17.7 0.00 0.00 0.00 59 1032.3
20260830044217 17 263 4.8 12.9 0.00 0.00 0.00 59 1032.3
20260830043041 17 263 4.8 11.3 0.00 0.00 0.00 59 1032.3
20260830042524 17 263 3.2 11.3 0.00 0.00 0.00 60 1032.6
20260830042005 17 263 4.8 9.7 0.00 0.00 0.00 59 1032.6
20260830041447 17 263 4.8 16.1 0.00 0.00 0.00 59 1032.6
20260830035707 17 263 4.8 14.5 0.00 0.00 0.00 59 1032.9
20260830035215 17 263 4.8 14.5 0.00 0.00 0.00 58 1032.9
20260830034714 17 263 4.8 12.9 0.00 0.00 0.00 57 1032.9
20260830034211 17 263 4.8 12.9 0.00 0.00 0.00 55 1033.2
20260830033702 17 263 3.2 14.5 0.00 0.00 0.00 55 1033.2
20260830033153 17 263 3.2 14.5 0.00 0.00 0.00 56 1033.2
20260830032652 17 263 4.8 14.5 0.00 0.00 0.00 55 1033.3
20260830032145 17 263 3.2 14.5 0.00 0.00 0.00 55 1033.3
20260830031641 17 263 4.8 14.5 0.00 0.00 0.00 54 1033.3
20260830031132 17 263 6.4 14.5 0.00 0.00 0.00 54 1033.4
20260830030618 17 263 4.8 14.5 0.00 0.00 0.00 54 1033.4
20260830025449 17 263 3.2 12.9 0.00 0.00 0.00 51 1033.7